User: anonymous   Login
Location: Unspecified
(0.0000°N, 0.0000°E)
Time: 04:31:31
(UTC+00:00)
Language:

FALCON 9 R/B - Orbit

View from above orbital plane
View from above orbital plane
View from above satellite
View from above satellite

Ground track
Ground track

The orbit data is extracted from the following two-line orbital elements,

1 37253U 10066K   15245.43716945  .00004073  00000-0  38177-3 0  9992
2 37253  34.5232 241.2822 4308862 233.2135  79.1066  6.84550420115619
Epoch (UTC): 02 September 2015 10:29:31
Eccentricity: 0.4308862
inclination: 34.5232°
perigee height: 290 km
apogee height: 10387 km
right ascension of ascending node: 241.2822°
argument of perigee: 233.2135°
revolutions per day: 6.84550420
mean anomaly at epoch: 79.1066°
orbit number at epoch: 11561

The dashed part of the orbit path shows where the satellite is in the earth's shadow,  

DLR